"Sample Date","Sample Time","Sample Value","Units","Flow Rate","Sample Interval","Number Channels","Micron Size 0","Counts/Channel 0","Micron Size 1","Counts/Channel 1","Micron Size 2","Counts/Channel 2","Micron Size 3","Counts/Channel 3","Micron Size 4","Counts/Channel 4","Micron Size 5","Counts/Channel 5","Micron Size 6","Counts/Channel 6","Micron Size 7","Counts/Channel 7","Micron Size 8","Counts/Channel 8","Micron Size 9","Counts/Channel 9","Micron Size 10","Counts/Channel 10","Micron Size 11","Counts/Channel 11","Micron Size 12","Counts/Channel 12","Micron Size 13","Counts/Channel 13","Micron Size 14","Counts/Channel 14","Micron Size 15","Counts/Channel 15","Micron Size 16","Counts/Channel 16","Micron Size 17","Counts/Channel 17","Micron Size 18","Counts/Channel 18","Micron Size 19","Counts/Channel 19","Micron Size 20","Counts/Channel 20","Micron Size 21","Counts/Channel 21","Micron Size 22","Counts/Channel 22","Micron Size 23","Counts/Channel 23","Micron Size 24","Counts/Channel 24","Micron Size 25","Counts/Channel 25","Micron Size 26","Counts/Channel 26","Micron Size 27","Counts/Channel 27","Micron Size 28","Counts/Channel 28","Micron Size 29","Counts/Channel 29","Micron Size 30","Counts/Channel 30","Micron Size 31","Counts/Channel 31"
"04/01/08","06:00:00",10557.000,"cc",28326.934,6.00,6,0.100,7140.000,0.200,1365.000,0.300,839.000,0.500,872.000,1.000,341.000,5.000,0
"04/01/08","06:00:06",10039.000,"cc",28259.715,6.00,6,0.100,6819.000,0.200,1311.000,0.300,787.000,0.500,820.000,1.000,302.000,5.000,0
"04/01/08","06:00:12",10278.000,"cc",28345.356,6.00,6,0.100,6906.000,0.200,1395.000,0.300,786.000,0.500,860.000,1.000,331.000,5.000,0
"04/01/08","06:00:18",10195.000,"cc",28288.824,6.00,6,0.100,6792.000,0.200,1340.000,0.300,837.000,0.500,881.000,1.000,345.000,5.000,0
"04/01/08","06:00:24",10261.000,"cc",28336.729,6.00,6,0.100,6926.000,0.200,1329.000,0.300,800.000,0.500,884.000,1.000,322.000,5.000,0
"04/01/08","06:00:30",10213.000,"cc",28304.725,6.00,6,0.100,6778.000,0.200,1442.000,0.300,819.000,0.500,840.000,1.000,334.000,5.000,0
"04/01/08","06:00:36",10404.000,"cc",28371.953,6.00,6,0.100,6959.000,0.200,1433.000,0.300,801.000,0.500,876.000,1.000,335.000,5.000,0
"04/01/08","06:00:42",10283.000,"cc",28282.158,6.00,6,0.100,6813.000,0.200,1434.000,0.300,839.000,0.500,864.000,1.000,333.000,5.000,0
"04/01/08","06:00:48",10158.000,"cc",28295.190,6.00,6,0.100,6861.000,0.200,1407.000,0.300,760.000,0.500,834.000,1.000,296.000,5.000,0
"04/01/08","06:00:54",10186.000,"cc",28370.467,6.00,6,0.100,6886.000,0.200,1355.000,0.300,817.000,0.500,841.000,1.000,287.000,5.000,0
"04/01/08","06:01:00",10336.000,"cc",28270.570,6.00,6,0.100,6835.000,0.200,1381.000,0.300,839.000,0.500,964.000,1.000,317.000,5.000,0
"04/01/08","06:01:06",10366.000,"cc",28327.191,6.00,6,0.100,6954.000,0.200,1426.000,0.300,827.000,0.500,866.000,1.000,293.000,5.000,0
"04/01/08","06:01:12",10243.000,"cc",28339.938,6.00,6,0.100,6852.000,0.200,1382.000,0.300,799.000,0.500,921.000,1.000,289.000,5.000,0
"04/01/08","06:01:18",10434.000,"cc",28326.764,6.00,6,0.100,6883.000,0.200,1456.000,0.300,858.000,0.500,928.000,1.000,309.000,5.000,0
"04/01/08","06:01:24",10424.000,"cc",28298.504,6.00,6,0.100,6941.000,0.200,1432.000,0.300,788.000,0.500,950.000,1.000,313.000,5.000,0
"04/01/08","06:01:30",10223.000,"cc",28336.377,6.00,6,0.100,6841.000,0.200,1398.000,0.300,801.000,0.500,863.000,1.000,320.000,5.000,0
"04/01/08","06:01:36",10430.000,"cc",28344.049,6.00,6,0.100,6916.000,0.200,1376.000,0.300,880.000,0.500,942.000,1.000,316.000,5.000,0
"04/01/08","06:01:42",10231.000,"cc",28304.824,6.00,6,0.100,6898.000,0.200,1332.000,0.300,790.000,0.500,892.000,1.000,319.000,5.000,0
"04/01/08","06:01:48",10356.000,"cc",28327.699,6.00,6,0.100,6937.000,0.200,1422.000,0.300,840.000,0.500,817.000,1.000,340.000,5.000,0
"04/01/08","06:01:54",10334.000,"cc",28341.219,6.00,6,0.100,6788.000,0.200,1432.000,0.300,851.000,0.500,934.000,1.000,329.000,5.000,0
"04/01/08","06:02:00",10325.000,"cc",28354.273,6.00,6,0.100,6925.000,0.200,1363.000,0.300,790.000,0.500,889.000,1.000,358.000,5.000,0
"04/01/08","06:02:06",10132.000,"cc",28252.535,6.00,6,0.100,6708.000,0.200,1388.000,0.300,832.000,0.500,882.000,1.000,322.000,5.000,0
"04/01/08","06:02:12",10323.000,"cc",28303.578,6.00,6,0.100,6871.000,0.200,1388.000,0.300,792.000,0.500,924.000,1.000,348.000,5.000,0
"04/01/08","06:02:18",10479.000,"cc",28319.891,6.00,6,0.100,6978.000,0.200,1378.000,0.300,821.000,0.500,979.000,1.000,323.000,5.000,0
"04/01/08","06:02:24",10599.000,"cc",28304.375,6.00,6,0.100,7080.000,0.200,1379.000,0.300,867.000,0.500,945.000,1.000,328.000,5.000,0
"04/01/08","06:02:30",10253.000,"cc",28347.576,6.00,6,0.100,6947.000,0.200,1319.000,0.300,823.000,0.500,862.000,1.000,302.000,5.000,0
"04/01/08","06:02:36",10288.000,"cc",28340.690,6.00,6,0.100,6891.000,0.200,1346.000,0.300,830.000,0.500,909.000,1.000,312.000,5.000,0
"04/01/08","06:02:42",10427.000,"cc",28333.824,6.00,6,0.100,6988.000,0.200,1387.000,0.300,839.000,0.500,869.000,1.000,344.000,5.000,0
"04/01/08","06:02:48",10385.000,"cc",28288.461,6.00,6,0.100,7001.000,0.200,1341.000,0.300,863.000,0.500,871.000,1.000,308.000,5.000,1.000
"04/01/08","06:02:54",10167.000,"cc",28350.551,6.00,6,0.100,6722.000,0.200,1385.000,0.300,794.000,0.500,919.000,1.000,347.000,5.000,0
"04/01/08","06:03:00",10305.000,"cc",28364.707,6.00,6,0.100,6797.000,0.200,1470.000,0.300,853.000,0.500,883.000,1.000,302.000,5.000,0
"04/01/08","06:03:06",10174.000,"cc",28289.852,6.00,6,0.100,6892.000,0.200,1382.000,0.300,776.000,0.500,832.000,1.000,292.000,5.000,0
"04/01/08","06:03:12",10329.000,"cc",28245.443,6.00,6,0.100,6903.000,0.200,1355.000,0.300,804.000,0.500,931.000,1.000,336.000,5.000,0
"04/01/08","06:03:18",10539.000,"cc",28248.854,6.00,6,0.100,6979.000,0.200,1447.000,0.300,864.000,0.500,924.000,1.000,325.000,5.000,0
"04/01/08","06:03:24",10357.000,"cc",28341.953,6.00,6,0.100,6857.000,0.200,1436.000,0.300,818.000,0.500,917.000,1.000,329.000,5.000,0
"04/01/08","06:03:30",10252.000,"cc",28352.359,6.00,6,0.100,6880.000,0.200,1390.000,0.300,805.000,0.500,860.000,1.000,317.000,5.000,0
"04/01/08","06:03:36",10253.000,"cc",28316.840,6.00,6,0.100,6889.000,0.200,1321.000,0.300,831.000,0.500,913.000,1.000,299.000,5.000,0
"04/01/08","06:03:42",10176.000,"cc",28340.596,6.00,6,0.100,6872.000,0.200,1298.000,0.300,798.000,0.500,906.000,1.000,302.000,5.000,0
"04/01/08","06:03:48",10081.000,"cc",28284.561,6.00,6,0.100,6670.000,0.200,1386.000,0.300,820.000,0.500,873.000,1.000,332.000,5.000,0
"04/01/08","06:03:54",10116.000,"cc",28319.682,6.00,6,0.100,6757.000,0.200,1291.000,0.300,841.000,0.500,905.000,1.000,322.000,5.000,0
"04/01/08","06:04:00",10167.000,"cc",28342.098,6.00,6,0.100,6795.000,0.200,1345.000,0.300,817.000,0.500,908.000,1.000,302.000,5.000,0
"04/01/08","06:04:06",10309.000,"cc",28321.334,6.00,6,0.100,6920.000,0.200,1347.000,0.300,813.000,0.500,908.000,1.000,321.000,5.000,0
"04/01/08","06:04:12",10203.000,"cc",28305.838,6.00,6,0.100,6780.000,0.200,1390.000,0.300,818.000,0.500,882.000,1.000,333.000,5.000,0
"04/01/08","06:04:18",10282.000,"cc",28345.395,6.00,6,0.100,6825.000,0.200,1351.000,0.300,857.000,0.500,920.000,1.000,329.000,5.000,0
"04/01/08","06:04:24",10169.000,"cc",28257.799,6.00,6,0.100,6782.000,0.200,1321.000,0.300,864.000,0.500,872.000,1.000,330.000,5.000,0
"04/01/08","06:04:30",10225.000,"cc",28342.904,6.00,6,0.100,6843.000,0.200,1363.000,0.300,826.000,0.500,898.000,1.000,295.000,5.000,0
"04/01/08","06:04:36",10113.000,"cc",28329.246,6.00,6,0.100,6708.000,0.200,1355.000,0.300,806.000,0.500,937.000,1.000,307.000,5.000,0
"04/01/08","06:04:42",10241.000,"cc",28279.447,6.00,6,0.100,6920.000,0.200,1402.000,0.300,739.000,0.500,862.000,1.000,318.000,5.000,0
"04/01/08","06:04:48",10451.000,"cc",28274.889,6.00,6,0.100,7032.000,0.200,1397.000,0.300,747.000,0.500,934.000,1.000,341.000,5.000,0
"04/01/08","06:04:54",10398.000,"cc",28301.914,6.00,6,0.100,6882.000,0.200,1414.000,0.300,803.000,0.500,980.000,1.000,319.000,5.000,0
"04/01/08","06:05:00",10196.000,"cc",28396.930,6.00,6,0.100,6799.000,0.200,1392.000,0.300,820.000,0.500,868.000,1.000,317.000,5.000,0
"04/01/08","06:05:06",10177.000,"cc",28317.895,6.00,6,0.100,6863.000,0.200,1342.000,0.300,815.000,0.500,833.000,1.000,324.000,5.000,0
"04/01/08","06:05:12",10159.000,"cc",28343.035,6.00,6,0.100,6820.000,0.200,1336.000,0.300,805.000,0.500,902.000,1.000,296.000,5.000,0
"04/01/08","06:05:18",10370.000,"cc",28337.690,6.00,6,0.100,6963.000,0.200,1407.000,0.300,844.000,0.500,866.000,1.000,290.000,5.000,0
"04/01/08","06:05:24",10213.000,"cc",28288.920,6.00,6,0.100,6819.000,0.200,1351.000,0.300,808.000,0.500,914.000,1.000,321.000,5.000,0
"04/01/08","06:05:30",10452.000,"cc",28303.697,6.00,6,0.100,7044.000,0.200,1357.000,0.300,828.000,0.500,934.000,1.000,289.000,5.000,0
"04/01/08","06:05:36",10343.000,"cc",28281.287,6.00,6,0.100,7048.000,0.200,1291.000,0.300,829.000,0.500,875.000,1.000,300.000,5.000,0
"04/01/08","06:05:42",10600.000,"cc",28362.705,6.00,6,0.100,7110.000,0.200,1343.000,0.300,847.000,0.500,965.000,1.000,335.000,5.000,0
"04/01/08","06:05:48",10438.000,"cc",28349.111,6.00,6,0.100,7045.000,0.200,1387.000,0.300,826.000,0.500,878.000,1.000,302.000,5.000,0
"04/01/08","06:05:54",10640.000,"cc",28308.590,6.00,6,0.100,7153.000,0.200,1387.000,0.300,831.000,0.500,950.000,1.000,319.000,5.000,0
"04/01/08","06:06:00",10546.000,"cc",28266.895,6.00,6,0.100,7143.000,0.200,1398.000,0.300,801.000,0.500,898.000,1.000,306.000,5.000,0
"04/01/08","06:06:06",10727.000,"cc",28295.623,6.00,6,0.100,7196.000,0.200,1469.000,0.300,807.000,0.500,874.000,1.000,381.000,5.000,0
"04/01/08","06:06:12",10631.000,"cc",28293.516,6.00,6,0.100,7190.000,0.200,1419.000,0.300,831.000,0.500,908.000,1.000,283.000,5.000,0
"04/01/08","06:06:18",10426.000,"cc",28305.629,6.00,6,0.100,7013.000,0.200,1418.000,0.300,760.000,0.500,921.000,1.000,314.000,5.000,0
"04/01/08","06:06:24",10338.000,"cc",28329.684,6.00,6,0.100,7031.000,0.200,1322.000,0.300,828.000,0.500,848.000,1.000,309.000,5.000,0
"04/01/08","06:06:30",10602.000,"cc",28403.139,6.00,6,0.100,7109.000,0.200,1367.000,0.300,882.000,0.500,903.000,1.000,341.000,5.000,0
"04/01/08","06:06:36",10646.000,"cc",28212.436,6.00,6,0.100,7190.000,0.200,1377.000,0.300,856.000,0.500,885.000,1.000,338.000,5.000,0
"04/01/08","06:06:42",10373.000,"cc",28299.285,6.00,6,0.100,7062.000,0.200,1288.000,0.300,860.000,0.500,886.000,1.000,277.000,5.000,0
"04/01/08","06:06:48",10343.000,"cc",28351.602,6.00,6,0.100,6941.000,0.200,1387.000,0.300,778.000,0.500,927.000,1.000,310.000,5.000,0
"04/01/08","06:06:54",10420.000,"cc",28312.498,6.00,6,0.100,7067.000,0.200,1373.000,0.300,774.000,0.500,864.000,1.000,342.000,5.000,0
"04/01/08","06:07:00",10630.000,"cc",28242.022,6.00,6,0.100,7069.000,0.200,1439.000,0.300,881.000,0.500,936.000,1.000,305.000,5.000,0
"04/01/08","06:07:06",10470.000,"cc",28312.789,6.00,6,0.100,7066.000,0.200,1342.000,0.300,860.000,0.500,900.000,1.000,302.000,5.000,0
"04/01/08","06:07:12",10276.000,"cc",28352.647,6.00,6,0.100,6894.000,0.200,1379.000,0.300,786.000,0.500,908.000,1.000,309.000,5.000,0
"04/01/08","06:07:18",10548.000,"cc",28306.199,6.00,6,0.100,7128.000,0.200,1354.000,0.300,873.000,0.500,884.000,1.000,309.000,5.000,0
"04/01/08","06:07:24",10259.000,"cc",28369.607,6.00,6,0.100,6966.000,0.200,1308.000,0.300,760.000,0.500,889.000,1.000,336.000,5.000,0
"04/01/08","06:07:30",10415.000,"cc",28325.307,6.00,6,0.100,6997.000,0.200,1361.000,0.300,803.000,0.500,920.000,1.000,334.000,5.000,0
"04/01/08","06:07:36",10553.000,"cc",28320.756,6.00,6,0.100,7066.000,0.200,1377.000,0.300,836.000,0.500,938.000,1.000,336.000,5.000,0
"04/01/08","06:07:42",10414.000,"cc",28263.014,6.00,6,0.100,6948.000,0.200,1383.000,0.300,858.000,0.500,911.000,1.000,314.000,5.000,0
"04/01/08","06:07:48",10424.000,"cc",28350.076,6.00,6,0.100,7054.000,0.200,1373.000,0.300,810.000,0.500,883.000,1.000,304.000,5.000,0
"04/01/08","06:07:54",10390.000,"cc",28338.570,6.00,6,0.100,7032.000,0.200,1335.000,0.300,817.000,0.500,894.000,1.000,312.000,5.000,0
"04/01/08","06:08:00",10553.000,"cc",28299.148,6.00,6,0.100,7103.000,0.200,1404.000,0.300,858.000,0.500,915.000,1.000,273.000,5.000,0
"04/01/08","06:08:06",10657.000,"cc",28310.416,6.00,6,0.100,7138.000,0.200,1386.000,0.300,846.000,0.500,957.000,1.000,330.000,5.000,0
"04/01/08","06:08:12",10484.000,"cc",28352.311,6.00,6,0.100,7084.000,0.200,1303.000,0.300,867.000,0.500,936.000,1.000,294.000,5.000,0
"04/01/08","06:08:18",10309.000,"cc",28353.975,6.00,6,0.100,6982.000,0.200,1383.000,0.300,746.000,0.500,897.000,1.000,301.000,5.000,0
"04/01/08","06:08:24",10344.000,"cc",28335.547,6.00,6,0.100,7038.000,0.200,1311.000,0.300,788.000,0.500,886.000,1.000,321.000,5.000,0
"04/01/08","06:08:30",10373.000,"cc",28290.611,6.00,6,0.100,7126.000,0.200,1338.000,0.300,796.000,0.500,835.000,1.000,278.000,5.000,0
"04/01/08","06:08:36",10212.000,"cc",28262.898,6.00,6,0.100,6914.000,0.200,1321.000,0.300,818.000,0.500,856.000,1.000,303.000,5.000,0
"04/01/08","06:08:42",9948.000,"cc",28363.797,6.00,6,0.100,6781.000,0.200,1259.000,0.300,764.000,0.500,850.000,1.000,294.000,5.000,0
"04/01/08","06:08:48",10239.000,"cc",28313.481,6.00,6,0.100,6939.000,0.200,1370.000,0.300,783.000,0.500,874.000,1.000,273.000,5.000,0
"04/01/08","06:08:54",10149.000,"cc",28323.783,6.00,6,0.100,6882.000,0.200,1340.000,0.300,793.000,0.500,868.000,1.000,266.000,5.000,0
"04/01/08","06:09:00",10094.000,"cc",28247.037,6.00,6,0.100,6913.000,0.200,1355.000,0.300,759.000,0.500,772.000,1.000,295.000,5.000,0
"04/01/08","06:09:06",10110.000,"cc",28331.117,6.00,6,0.100,6919.000,0.200,1290.000,0.300,807.000,0.500,817.000,1.000,277.000,5.000,0
"04/01/08","06:09:12",9935.000,"cc",28322.088,6.00,6,0.100,6811.000,0.200,1269.000,0.300,761.000,0.500,832.000,1.000,262.000,5.000,0
"04/01/08","06:09:18",10053.000,"cc",28258.992,6.00,6,0.100,6910.000,0.200,1288.000,0.300,761.000,0.500,821.000,1.000,273.000,5.000,0
"04/01/08","06:09:24",10116.000,"cc",28331.416,6.00,6,0.100,6880.000,0.200,1313.000,0.300,762.000,0.500,886.000,1.000,275.000,5.000,0
"04/01/08","06:09:30",10326.000,"cc",28304.342,6.00,6,0.100,7017.000,0.200,1340.000,0.300,809.000,0.500,865.000,1.000,295.000,5.000,0
"04/01/08","06:09:36",10071.000,"cc",28303.945,6.00,6,0.100,6764.000,0.200,1352.000,0.300,746.000,0.500,911.000,1.000,298.000,5.000,0
"04/01/08","06:09:42",10132.000,"cc",28380.961,6.00,6,0.100,7023.000,0.200,1213.000,0.300,744.000,0.500,813.000,1.000,339.000,5.000,0
"04/01/08","06:09:48",10090.000,"cc",28365.365,6.00,6,0.100,6855.000,0.200,1345.000,0.300,733.000,0.500,838.000,1.000,319.000,5.000,0
"04/01/08","06:09:54",10023.000,"cc",28317.320,6.00,6,0.100,6809.000,0.200,1292.000,0.300,787.000,0.500,841.000,1.000,294.000,5.000,0
"04/01/08","06:10:00",10360.000,"cc",28344.959,6.00,6,0.100,7037.000,0.200,1302.000,0.300,831.000,0.500,873.000,1.000,317.000,5.000,0
"04/01/08","06:10:06",10218.000,"cc",28271.393,6.00,6,0.100,6985.000,0.200,1298.000,0.300,811.000,0.500,826.000,1.000,298.000,5.000,0
"04/01/08","06:10:12",10068.000,"cc",28312.537,6.00,6,0.100,6901.000,0.200,1269.000,0.300,805.000,0.500,807.000,1.000,286.000,5.000,0
"04/01/08","06:10:18",9916.000,"cc",28369.147,6.00,6,0.100,6642.000,0.200,1341.000,0.300,780.000,0.500,856.000,1.000,297.000,5.000,0
"04/01/08","06:10:24",9857.000,"cc",28281.787,6.00,6,0.100,6602.000,0.200,1351.000,0.300,789.000,0.500,808.000,1.000,307.000,5.000,0
"04/01/08","06:10:30",10060.000,"cc",28316.996,6.00,6,0.100,6858.000,0.200,1288.000,0.300,829.000,0.500,812.000,1.000,273.000,5.000,0
"04/01/08","06:10:36",10072.000,"cc",28313.129,6.00,6,0.100,6851.000,0.200,1355.000,0.300,722.000,0.500,853.000,1.000,291.000,5.000,0
"04/01/08","06:10:42",10017.000,"cc",28322.777,6.00,6,0.100,6911.000,0.200,1293.000,0.300,740.000,0.500,799.000,1.000,274.000,5.000,0
"04/01/08","06:10:48",10135.000,"cc",28328.256,6.00,6,0.100,6887.000,0.200,1383.000,0.300,750.000,0.500,842.000,1.000,273.000,5.000,0
"04/01/08","06:10:54",10058.000,"cc",28295.057,6.00,6,0.100,6918.000,0.200,1255.000,0.300,736.000,0.500,865.000,1.000,284.000,5.000,0
"04/01/08","06:11:00",10007.000,"cc",28318.422,6.00,6,0.100,6748.000,0.200,1345.000,0.300,741.000,0.500,878.000,1.000,295.000,5.000,0
"04/01/08","06:11:06",10215.000,"cc",28278.311,6.00,6,0.100,6984.000,0.200,1347.000,0.300,760.000,0.500,849.000,1.000,275.000,5.000,0
"04/01/08","06:11:12",9926.000,"cc",28303.613,6.00,6,0.100,6821.000,0.200,1263.000,0.300,738.000,0.500,807.000,1.000,297.000,5.000,0
"04/01/08","06:11:18",10067.000,"cc",28306.443,6.00,6,0.100,6877.000,0.200,1355.000,0.300,742.000,0.500,818.000,1.000,275.000,5.000,0
"04/01/08","06:11:24",10026.000,"cc",28377.186,6.00,6,0.100,6881.000,0.200,1326.000,0.300,730.000,0.500,804.000,1.000,285.000,5.000,0
"04/01/08","06:11:30",9860.000,"cc",28314.486,6.00,6,0.100,6784.000,0.200,1257.000,0.300,727.000,0.500,813.000,1.000,279.000,5.000,0
"04/01/08","06:11:36",9940.000,"cc",28344.549,6.00,6,0.100,6895.000,0.200,1259.000,0.300,697.000,0.500,819.000,1.000,270.000,5.000,0
"04/01/08","06:11:42",9792.000,"cc",28339.281,6.00,6,0.100,6722.000,0.200,1253.000,0.300,729.000,0.500,787.000,1.000,301.000,5.000,0
"04/01/08","06:11:48",10014.000,"cc",28272.713,6.00,6,0.100,6974.000,0.200,1236.000,0.300,724.000,0.500,798.000,1.000,282.000,5.000,0
"04/01/08","06:11:54",9989.000,"cc",28286.998,6.00,6,0.100,6854.000,0.200,1308.000,0.300,741.000,0.500,816.000,1.000,270.000,5.000,0
"04/01/08","06:12:00",10043.000,"cc",28325.818,6.00,6,0.100,6931.000,0.200,1211.000,0.300,768.000,0.500,833.000,1.000,300.000,5.000,0
"04/01/08","06:12:06",9817.000,"cc",28259.402,6.00,6,0.100,6671.000,0.200,1277.000,0.300,794.000,0.500,796.000,1.000,279.000,5.000,0
"04/01/08","06:12:12",9869.000,"cc",28293.106,6.00,6,0.100,6810.000,0.200,1243.000,0.300,726.000,0.500,800.000,1.000,290.000,5.000,0
"04/01/08","06:12:18",9938.000,"cc",28374.227,6.00,6,0.100,6784.000,0.200,1252.000,0.300,812.000,0.500,800.000,1.000,290.000,5.000,0
"04/01/08","06:12:24",10079.000,"cc",28287.500,6.00,6,0.100,6864.000,0.200,1328.000,0.300,767.000,0.500,838.000,1.000,282.000,5.000,0
"04/01/08","06:12:30",10049.000,"cc",28286.645,6.00,6,0.100,6888.000,0.200,1288.000,0.300,754.000,0.500,833.000,1.000,286.000,5.000,0
"04/01/08","06:12:36",9877.000,"cc",28321.637,6.00,6,0.100,6723.000,0.200,1279.000,0.300,754.000,0.500,818.000,1.000,303.000,5.000,0
"04/01/08","06:12:42",9885.000,"cc",28358.102,6.00,6,0.100,6741.000,0.200,1286.000,0.300,750.000,0.500,813.000,1.000,295.000,5.000,0
"04/01/08","06:12:48",10008.000,"cc",28311.629,6.00,6,0.100,6856.000,0.200,1303.000,0.300,779.000,0.500,807.000,1.000,263.000,5.000,0
"04/01/08","06:12:54",9944.000,"cc",28360.815,6.00,6,0.100,6837.000,0.200,1310.000,0.300,745.000,0.500,776.000,1.000,276.000,5.000,0
"04/01/08","06:13:00",9786.000,"cc",28350.424,6.00,6,0.100,6594.000,0.200,1324.000,0.300,772.000,0.500,808.000,1.000,288.000,5.000,0
"04/01/08","06:13:06",9889.000,"cc",28282.363,6.00,6,0.100,6679.000,0.200,1337.000,0.300,761.000,0.500,811.000,1.000,301.000,5.000,0
"04/01/08","06:13:12",9896.000,"cc",28273.330,6.00,6,0.100,6752.000,0.200,1309.000,0.300,711.000,0.500,843.000,1.000,281.000,5.000,0
"04/01/08","06:13:18",9933.000,"cc",28360.857,6.00,6,0.100,6727.000,0.200,1292.000,0.300,811.000,0.500,844.000,1.000,259.000,5.000,0
"04/01/08","06:13:24",9951.000,"cc",28347.934,6.00,6,0.100,6747.000,0.200,1304.000,0.300,804.000,0.500,834.000,1.000,262.000,5.000,0
"04/01/08","06:13:30",9784.000,"cc",28319.430,6.00,6,0.100,6601.000,0.200,1319.000,0.300,762.000,0.500,813.000,1.000,289.000,5.000,0
"04/01/08","06:13:36",9805.000,"cc",28277.955,6.00,6,0.100,6655.000,0.200,1258.000,0.300,787.000,0.500,851.000,1.000,254.000,5.000,0
"04/01/08","06:13:42",9949.000,"cc",28271.660,6.00,6,0.100,6784.000,0.200,1317.000,0.300,757.000,0.500,813.000,1.000,278.000,5.000,0
"04/01/08","06:13:48",10106.000,"cc",28337.158,6.00,6,0.100,6902.000,0.200,1304.000,0.300,807.000,0.500,825.000,1.000,268.000,5.000,0
"04/01/08","06:13:54",10047.000,"cc",28338.311,6.00,6,0.100,6788.000,0.200,1317.000,0.300,787.000,0.500,845.000,1.000,310.000,5.000,0
"04/01/08","06:14:00",10170.000,"cc",28336.385,6.00,6,0.100,6869.000,0.200,1404.000,0.300,767.000,0.500,850.000,1.000,280.000,5.000,0
"04/01/08","06:14:06",10238.000,"cc",28324.463,6.00,6,0.100,6972.000,0.200,1351.000,0.300,791.000,0.500,819.000,1.000,305.000,5.000,0
"04/01/08","06:14:12",10419.000,"cc",28335.699,6.00,6,0.100,7072.000,0.200,1368.000,0.300,781.000,0.500,910.000,1.000,288.000,5.000,0
"04/01/08","06:14:18",10257.000,"cc",28322.889,6.00,6,0.100,6893.000,0.200,1333.000,0.300,820.000,0.500,884.000,1.000,327.000,5.000,0
"04/01/08","06:14:24",10330.000,"cc",28330.016,6.00,6,0.100,7031.000,0.200,1306.000,0.300,798.000,0.500,853.000,1.000,342.000,5.000,0
"04/01/08","06:14:30",10451.000,"cc",28391.941,6.00,6,0.100,7089.000,0.200,1324.000,0.300,841.000,0.500,919.000,1.000,278.000,5.000,0
"04/01/08","06:14:36",10660.000,"cc",28347.191,6.00,6,0.100,7264.000,0.200,1349.000,0.300,804.000,0.500,936.000,1.000,307.000,5.000,0
"04/01/08","06:14:42",10557.000,"cc",28240.518,6.00,6,0.100,7053.000,0.200,1413.000,0.300,833.000,0.500,918.000,1.000,340.000,5.000,0
"04/01/08","06:14:48",10534.000,"cc",28298.656,6.00,6,0.100,7014.000,0.200,1453.000,0.300,818.000,0.500,921.000,1.000,328.000,5.000,0
"04/01/08","06:14:54",10337.000,"cc",28296.570,6.00,6,0.100,6945.000,0.200,1381.000,0.300,801.000,0.500,886.000,1.000,324.000,5.000,0
"04/01/08","06:15:00",10336.000,"cc",28327.936,6.00,6,0.100,7007.000,0.200,1369.000,0.300,773.000,0.500,873.000,1.000,314.000,5.000,0
"04/01/08","06:15:06",10624.000,"cc",28307.447,6.00,6,0.100,7171.000,0.200,1383.000,0.300,816.000,0.500,940.000,1.000,314.000,5.000,0
"04/01/08","06:15:12",10415.000,"cc",28313.969,6.00,6,0.100,6950.000,0.200,1389.000,0.300,866.000,0.500,906.000,1.000,304.000,5.000,0
"04/01/08","06:15:18",10591.000,"cc",28284.834,6.00,6,0.100,7185.000,0.200,1346.000,0.300,844.000,0.500,900.000,1.000,316.000,5.000,0
"04/01/08","06:15:24",10600.000,"cc",28376.365,6.00,6,0.100,7103.000,0.200,1444.000,0.300,814.000,0.500,924.000,1.000,315.000,5.000,0
"04/01/08","06:15:30",10415.000,"cc",28276.201,6.00,6,0.100,6970.000,0.200,1389.000,0.300,825.000,0.500,915.000,1.000,316.000,5.000,0
"04/01/08","06:15:36",10598.000,"cc",28301.127,6.00,6,0.100,7167.000,0.200,1381.000,0.300,824.000,0.500,943.000,1.000,283.000,5.000,0
"04/01/08","06:15:42",10386.000,"cc",28339.174,6.00,6,0.100,7011.000,0.200,1311.000,0.300,807.000,0.500,902.000,1.000,355.000,5.000,0
"04/01/08","06:15:48",10634.000,"cc",28323.506,6.00,6,0.100,7121.000,0.200,1395.000,0.300,865.000,0.500,910.000,1.000,343.000,5.000,0
"04/01/08","06:15:54",10545.000,"cc",28346.430,6.00,6,0.100,7098.000,0.200,1387.000,0.300,827.000,0.500,922.000,1.000,311.000,5.000,0
"04/01/08","06:16:00",10301.000,"cc",28317.949,6.00,6,0.100,6942.000,0.200,1385.000,0.300,809.000,0.500,881.000,1.000,284.000,5.000,0
"04/01/08","06:16:06",10387.000,"cc",28249.508,6.00,6,0.100,7052.000,0.200,1348.000,0.300,805.000,0.500,871.000,1.000,311.000,5.000,0
"04/01/08","06:16:12",10398.000,"cc",28338.041,6.00,6,0.100,6982.000,0.200,1396.000,0.300,806.000,0.500,922.000,1.000,292.000,5.000,0
"04/01/08","06:16:18",10500.000,"cc",28398.897,6.00,6,0.100,7007.000,0.200,1379.000,0.300,836.000,0.500,967.000,1.000,311.000,5.000,0
"04/01/08","06:16:24",10372.000,"cc",28305.924,6.00,6,0.100,6992.000,0.200,1371.000,0.300,794.000,0.500,934.000,1.000,281.000,5.000,0
"04/01/08","06:16:30",10617.000,"cc",28289.762,6.00,6,0.100,7181.000,0.200,1396.000,0.300,801.000,0.500,922.000,1.000,317.000,5.000,0
"04/01/08","06:16:36",10410.000,"cc",28318.863,6.00,6,0.100,7066.000,0.200,1340.000,0.300,812.000,0.500,891.000,1.000,301.000,5.000,0
"04/01/08","06:16:42",10650.000,"cc",28342.828,6.00,6,0.100,7215.000,0.200,1410.000,0.300,854.000,0.500,874.000,1.000,297.000,5.000,0